Regional Weather Roundup
Issued by NWS

Home | Current Version | Previous Version | Text Only | Print | Product List | Glossary Off
Versions: 1 2 3 4 5 6 7 8 9 10 11 12 13 14 15 16 17 18 19 20 21 22 23 24 25 26 27 28 29 30 31 32 33 34 35 36 37 38 39 40 41 42 43 44 45 46 47 48 49 50

000
ASUS45 KBOU 011110
RWRCO

WEATHER ROUNDUP FOR COLORADO
NATIONAL WEATHER SERVICE DENVER/BOULDER CO
500 AM MDT SAT OCT 01 2016

NOTE: "FAIR" INDICATES FEW OR NO CLOUDS BELOW 12000 FEET WITH NO
SIGNIFICANT WEATHER AND/OR OBSTRUCTIONS TO VISIBILITY.

COZ001>005-013-030-031-011200-
...NORTHWEST COLORADO...

CITY           SKY/WX    TMP DP  RH WIND       PRES   REMARKS
CRAIG          FAIR      39  36  89 CALM      30.25S
HAYDEN         FAIR      45  37  76 E9        30.26S
MEEKER         FAIR      41  39  93 CALM      30.26S
MOUNT WERNER   NOT AVBL
STEAMBOAT SPGS FAIR      39  38  97 CALM      30.28S
WALDEN           N/A     34  32  93 E3        30.34S
$$

COZ006>008-011-011200-
...WEST CENTRAL VALLEYS...

CITY           SKY/WX    TMP DP  RH WIND       PRES   REMARKS
GRAND JUNCTION FAIR      51  47  86 E7        30.18R
MONTROSE       FAIR      46  40  79 SE6       30.26R
EAGLE          FAIR      39  37  93 CALM      30.32S
RIFLE          FAIR      46  44  93 CALM      30.23S
DELTA          FAIR      49  44  83 CALM      30.23S
NUCLA          FAIR      45  41  87 E7        30.28S
$$

COZ017>023-064>068-011200-
...SOUTHWEST COLORADO...

CITY           SKY/WX    TMP DP  RH WIND       PRES   REMARKS
DURANGO        FAIR      40  37  89 CALM      30.28R
CORTEZ         FAIR      41  38  89 E3        30.25R
PAGOSA SPRINGS FAIR      41  39  94 CALM      30.33S
TELLURIDE      FAIR      39  37  90 SE5       30.40S
WOLF CREEK PAS FOG       34  34 100 MISG      30.54S VSB 1/2
$$

COZ009-010-012-014-032>034-037-058>063-011200-
...CENTRAL COLORADO...

CITY           SKY/WX    TMP DP  RH WIND       PRES   REMARKS
ASPEN          FAIR      40  37  89 VRB3      30.31F
BUENA VISTA    FAIR      42  38  83 NW6       30.33S
COPPER MTN     FAIR      41  32  70 CALM      30.51S
BERTHOUD PASS  FAIR      32  21  64 N14G20    30.53S WCI  22
COTTONWOOD PAS FAIR      46  36  66 S3        30.41S
GUNNISON       FAIR      36  34  93 CALM      30.35S
KREMMLING      FOG       36  34  93 CALM      30.36R VSB 1/4
LEADVILLE      FAIR      35  32  88 NE5       30.40F WCI  31
MONARCH PASS   FAIR      36  34  93 SW6       30.61S
SALIDA         FAIR      44  41  89 W3        30.38F
SUNLIGHT       FAIR      43  36  75 CALM      30.48S
WILKERSON PASS FAIR      39  34  81 W6        30.50S
$$

COZ069>075-011200-
...SAN LUIS VALLEY/SANGRE DE CRISTO MOUNTAINS...

CITY           SKY/WX    TMP DP  RH WIND       PRES   REMARKS
ALAMOSA        FAIR      35  34  96 SE6       30.30S WCI  30
LA VETA PASS   FAIR      41  36  81 MISG      30.41S
SAGUACHE       FAIR      39  36  87 N9        30.32F
$$

COZ035-036-038>040-011200-
...NORTHERN COLORADO FRONT RANGE...

CITY           SKY/WX    TMP DP  RH WIND       PRES   REMARKS
DENVER INTL AP FAIR      52  44  74 W9        30.15S
DMNS CITY PARK   N/A     52  44  74 S3        30.15S
AURORA         PTCLDY    50  44  80 S8        30.17S
FRONT RANGE AP FAIR      54  45  71 SW10      30.16S
ERIE MUNI ARPT FAIR      48  41  78 CALM      30.14F
BOULDER MUN AP FAIR      54  39  58 SW3       30.14S
CENTENNIAL     FAIR      54  43  66 W9        30.17F
BROOMFIELD     FAIR      55  37  50 W6        30.16F
FORT COLLINS   MOCLDY    52  45  76 CALM      30.13F
LONGMONT       FAIR      48  43  84 CALM        N/A
$$

COZ041-046-047-076>085-087-088-011200-
...PIKES PEAK/PALMER DIVIDE AND SOUTHERN FOOTHILLS...

CITY           SKY/WX    TMP DP  RH WIND       PRES   REMARKS
COLO. SPRINGS  MOCLDY    55  44  66 N6        30.19F
A. F. ACADEMY  FAIR      46  44  93 N7        30.20F
SCHRIEVER AFB  NOT AVBL
ELLICOTT       NOT AVBL
FALCON         CLOUDY    54  41  60 NW7       30.23S
FORT CARSON    NOT AVBL
LIMON          FAIR      45  39  79 CALM      30.16S
MONUMENT HILL  FAIR      43  39  87 W8        30.25S
TRINIDAD       FAIR      52  45  77 W14       30.16F
$$

COZ042>045-048>051-090-091-011200-
...NORTHEAST COLORADO...

CITY           SKY/WX    TMP DP  RH WIND       PRES   REMARKS
GREELEY ARPT   CLOUDY   N/A N/A N/A CALM      30.12F
AKRON          FAIR      49  43  80 S6        30.12S
BURLINGTON     FAIR      48  43  82 SW5       30.12S
WRAY           FAIR      46  43  87 CALM      30.11F
STERLING       FAIR      45  43  93 SW6       30.09S
HOLYOKE        FAIR      43  39  87 S3        30.11F
FORT MORGAN    FAIR      45  40  83 W3        30.12S
$$

COZ086-089-092>099-011200-
...SOUTHEAST COLORADO...

CITY           SKY/WX    TMP DP  RH WIND       PRES   REMARKS
PUEBLO         FAIR      53  45  74 CALM      30.12F
LA JUNTA       FAIR      55  46  71 NE6       30.09F
LAMAR          FAIR      48  44  86 NE5       30.06S
SPRINGFIELD      N/A     52  47  83 CALM      30.09S
$$



USA.gov is the U.S. government's official web portal to all federal, state and local government web resources and services.